Simultaneous Nadir Overpasses (SNOs) Predictions

Prediction of SNOs between GOES-14 and AQUA Satellite Orbit:

Table of predicted SNOs for the next 14.0 days since TLE Epoch: 11/13/2020
Index Date Time (GOES-14) GOES-14 Lat,Lon AQUA Lat,Lon Distance(km) Time Diff (sec)
1 11/14/2020 20:26:32 -0.04,-104.20 0.31,-102.49 194.54 80
2 11/15/2020 08:47:48 0.02,-104.39 0.71,-107.66 371.47 80
3 11/17/2020 08:35:36 0.03,-104.39 0.09,-104.70 35.58 80
4 11/19/2020 08:20:45 0.04,-104.38 -0.53,-101.74 300.19 80
5 11/19/2020 20:42:07 -0.01,-104.17 -0.61,-106.92 312.95 80
6 11/21/2020 20:32:35 -0.01,-104.17 0.02,-103.96 23.62 80
7 11/23/2020 20:20:23 -0.01,-104.18 0.66,-101.01 360.78 80
8 11/24/2020 08:41:40 -0.01,-104.40 0.36,-106.18 201.85 80
9 11/26/2020 08:26:48 -0.00,-104.41 -0.28,-103.22 135.28 80
10 11/26/2020 20:48:11 0.02,-104.17 -0.86,-108.41 480.91 80
